Back to catalog

NOAA 16 DEB

AliveSSO
NORAD 42335·DEBRIS·🇺🇸 United States

Launched Sep 21, 2000 from Vandenberg Space Force Base

Loading…

Next Passes (next 24 hours)

TLE

FreshSource: Space-Track

Epoch: Sep 14, 2026, 09:29 UTC

1 42335U 00055QB  26257.39569944  .00002471  00000-0  85284-3 0  9992
2 42335  98.5547 315.7276 0022090 286.1406  73.7349 14.36606257546017

Track NOAA 16 DEB in real time with AllMySat

Download on the App Store